FW7110 Weather Reports


time (UTC)temp
F
wind
direction
speed
knots
gust
knots
rain 1hr
in
rain 24hr
in
rain mn
in
humidity
%
barometer
mb
20260906123059 71 97 1.7 7.0 0.00 0.00 0.00 94 1019.0
20260906121606 71 75 0.9 2.6 0.00 0.00 0.00 94 1018.8
20260906120059 70 63 0.9 3.5 0.00 0.00 0.00 95 1018.4
20260906114601 70 103 0.9 3.5 0.00 0.00 0.00 95 1018.3
20260906113104 70 60 0.9 3.5 0.00 0.00 0.00 95 1017.9
20260906111617 70 84 1.7 4.3 0.00 0.00 0.00 94 1017.6
20260906110058 70 46 0.0 3.5 0.00 0.00 0.00 94 1017.7
20260906104601 70 61 1.7 5.2 0.00 0.00 0.00 94 1017.6
20260906103104 70 96 0.9 3.5 0.00 0.00 0.00 94 1017.3
20260906101604 70 0 1.7 4.3 0.00 0.00 0.00 94 1017.3
20260906100058 70 25 0.9 5.2 0.00 0.00 0.00 93 1017.1
20260906094603 70 71 0.9 3.5 0.00 0.00 0.00 93 1017.3
20260906093103 70 18 0.9 3.5 0.00 0.00 0.00 93 1017.1
20260906091605 70 94 0.9 2.6 0.00 0.00 0.00 93 1017.1
20260906084601 70 74 0.0 1.7 0.00 0.00 0.00 94 1017.4
20260906083100 70 51 0.0 2.6 0.00 0.00 0.00 94 1017.4
20260906081600 70 4 0.0 2.6 0.00 0.00 0.00 94 1017.6
20260906080103 70 0 0.0 1.7 0.00 0.00 0.00 94 1017.4
20260906074608 70 0 0.0 1.7 0.00 0.00 0.00 94 1017.5
20260906073059 70 46 0.0 1.7 0.00 0.00 0.00 94 1017.5
20260906071602 69 99 0.0 0.9 0.00 0.00 0.00 94 1017.8
20260906070103 69 358 0.0 0.9 0.00 0.00 0.00 94 1017.6
20260906064557 70 358 0.0 2.6 0.00 0.00 0.00 94 1017.6
20260906063101 70 327 0.9 2.6 0.00 0.00 0.00 93 1017.5
20260906061604 70 13 0.0 1.7 0.00 0.00 0.00 93 1017.9
20260906060105 70 62 0.9 2.6 0.00 0.00 0.00 93 1017.9
20260906054605 70 54 0.9 2.6 0.00 0.00 0.00 93 1018.0
20260906053103 70 89 0.9 2.6 0.00 0.00 0.00 93 1017.9
20260906051613 70 99 0.9 3.5 0.00 0.00 0.00 92 1017.8
20260906050104 71 93 0.9 3.5 0.00 0.00 0.00 92 1017.5
20260906044607 71 71 0.9 4.3 0.00 0.00 0.00 92 1017.1
20260906043100 72 69 0.9 4.3 0.00 0.00 0.00 91 1017.0
20260906041601 72 21 0.0 2.6 0.00 0.00 0.00 91 1016.6
20260906040137 72 103 0.9 4.3 0.00 0.00 0.00 91 1016.5
20260906034611 73 99 0.0 2.6 0.00 0.00 0.00 91 1016.4
20260906033108 72 70 0.0 2.6 0.00 0.00 0.00 92 1016.3
20260906031600 72 63 0.9 1.7 0.00 0.00 0.00 92 1016.1
20260906030105 73 0 0.0 1.7 0.00 0.00 0.00 91 1016.1
20260906024613 73 98 0.0 2.6 0.00 0.00 0.00 91 1016.1
20260906023105 74 41 0.0 3.5 0.00 0.00 0.00 90 1015.9
20260906021603 74 60 0.9 1.7 0.00 0.00 0.00 90 1015.9
20260906014600 76 122 0.0 1.7 0.00 0.00 0.00 88 1015.7
20260906013114 77 37 0.0 3.5 0.00 0.00 0.00 87 1015.4
20260906011605 78 27 0.9 5.2 0.00 0.00 0.00 85 1015.4
20260906010104 78 40 1.7 7.0 0.00 0.00 0.00 84 1015.3
20260906004607 79 119 1.7 6.1 0.00 0.00 0.00 82 1015.2
20260906003104 80 357 2.6 7.8 0.00 0.00 0.00 80 1015.0
20260906001610 82 49 1.7 6.1 0.00 0.00 0.00 78 1014.9
20260905234604 84 15 0.9 5.2 0.00 0.00 0.00 76 1015.0
20260905233104 85 25 0.9 5.2 0.00 0.00 0.00 76 1014.7
20260905231608 86 30 1.7 5.2 0.00 0.00 0.00 75 1014.5
20260905230108 87 331 2.6 6.1 0.00 0.00 0.00 74 1014.3
20260905224617 88 68 2.6 7.8 0.00 0.00 0.00 72 1014.5
20260905223116 89 92 1.7 6.1 0.00 0.00 0.00 70 1014.3
20260905221605 90 334 1.7 3.5 0.00 0.00 0.00 69 1014.4
20260905220105 91 195 2.6 6.1 0.00 0.00 0.00 66 1014.2
20260905214603 91 56 1.7 6.1 0.00 0.00 0.00 67 1014.3
20260905213105 91 31 1.7 4.3 0.00 0.00 0.00 65 1014.1
20260905211613 91 52 1.7 5.2 0.00 0.00 0.00 65 1014.2
20260905210107 91 50 0.9 5.2 0.00 0.00 0.00 66 1014.2
20260905204603 91 80 1.7 4.3 0.00 0.00 0.00 65 1014.3
20260905203103 92 68 1.7 5.2 0.00 0.00 0.00 65 1014.5
20260905201602 91 65 0.9 2.6 0.00 0.00 0.00 68 1014.5
20260905200105 91 72 0.9 3.5 0.00 0.00 0.00 67 1014.7
20260905194557 90 23 0.9 3.5 0.00 0.00 0.00 67 1014.6
20260905193107 91 109 1.7 2.6 0.00 0.00 0.00 67 1014.6
20260905191608 91 88 0.9 4.3 0.00 0.00 0.00 67 1014.8
20260905190106 91 11 1.7 4.3 0.00 0.00 0.00 66 1014.9
20260905184607 92 64 0.9 3.5 0.00 0.00 0.00 66 1015.1
20260905183106 92 30 1.7 5.2 0.00 0.00 0.00 65 1015.1
20260905181604 93 64 0.9 3.5 0.00 0.00 0.00 65 1015.2
20260905180108 92 51 1.7 4.3 0.00 0.00 0.00 67 1015.2
20260905174606 91 98 0.9 4.3 0.00 0.00 0.00 67 1015.3
20260905173130 91 46 1.7 3.5 0.00 0.00 0.00 66 1015.4
20260905171609 92 84 0.9 4.3 0.00 0.00 0.00 68 1015.5
20260905170115 92 126 0.9 3.5 0.00 0.00 0.00 66 1015.7
20260905164609 91 86 1.7 3.5 0.00 0.00 0.00 68 1015.7
20260905163127 90 75 1.7 3.5 0.00 0.00 0.00 68 1015.8
20260905161616 90 313 1.7 3.5 0.00 0.00 0.00 70 1015.9
20260905160106 91 89 1.7 3.5 0.00 0.00 0.00 68 1015.8
20260905154616 90 23 0.9 3.5 0.00 0.00 0.00 70 1015.7
20260905153105 90 60 0.9 2.6 0.00 0.00 0.00 67 1015.5
20260905151603 89 40 0.9 2.6 0.00 0.00 0.00 69 1015.5
20260905150110 89 25 0.9 3.5 0.00 0.00 0.00 66 1015.4
20260905144602 89 92 0.9 3.5 0.00 0.00 0.00 66 1015.3
20260905143109 89 42 0.9 3.5 0.00 0.00 0.00 68 1015.1
20260905141606 89 240 0.9 3.5 0.00 0.00 0.00 67 1014.9
20260905140110 88 32 0.9 3.5 0.00 0.00 0.00 66 1015.0
20260905134602 87 262 0.0 0.9 0.00 0.00 0.00 72 1014.9
20260905133106 86 0 0.0 3.5 0.00 0.00 0.00 71 1014.7
20260905131603 85 237 0.0 1.7 0.00 0.00 0.00 75 1014.9
20260905130104 83 257 0.0 1.7 0.00 0.00 0.00 80 1014.9
20260905124558 81 0 0.0 0.9 0.00 0.00 0.00 84 1014.5